Regional Weather Roundup
Issued by NWS

Home | Current Version | Previous Version | Text Only | Print | Product List | Glossary Off
Versions: 1 2 3 4 5 6 7 8 9 10 11 12 13 14 15 16 17 18 19 20 21 22 23 24 25 26 27 28 29 30 31 32 33 34 35 36 37 38 39 40 41 42 43 44 45 46 47 48 49 50

000
ASUS43 KFSD 061502
RWRSD

WEATHER ROUNDUP FOR SOUTH DAKOTA
NATIONAL WEATHER SERVICE SIOUX FALLS SD
900 AM CST TUE DEC 06 2016

NOTE: "FAIR" INDICATES FEW OR NO CLOUDS BELOW 12,000 FEET WITH NO
SIGNIFICANT WEATHER AND/OR OBSTRUCTIONS TO VISIBILITY.


SDZ001>005-009-010-012>017-061600-
NORTHWEST AND NORTH CENTRAL SOUTH DAKOTA

CITY           SKY/WX    TMP DP  RH WIND       PRES   REMARKS
BUFFALO          N/A      3  -3  76 NW25G35   29.89R WCI -20
FAITH            N/A      4  -1  80 NW29G37   29.93R WCI -20
MOBRIDGE       MIX PCPN  12   5  73 NW32G47   29.83R VSB 1   WCI -10
$$

SDZ012>016-024>037-041>051-057-063-072>074-061600-
SOUTHWEST AND SOUTH CENTRAL SOUTH DAKOTA

CITY           SKY/WX    TMP DP  RH WIND       PRES   REMARKS
RAPID CTY ARPT CLEAR     10   1  67 N16       29.95S WCI  -7
PIERRE         MOCLDY    12   5  73 NW36G45   29.94R HAZE    WCI -11
CUSTER         CLEAR      8  -4  58 NW10G20   29.79S WCI  -6
ELLSWORTH AFB  CLEAR     10   0  64 NW15      29.94S WCI  -6
PHILIP         CLEAR     11   2  67 W20G31    30.01R WCI  -7
PINE RIDGE     CLEAR      8   2  76 W8        29.98R WCI  -4
SPEARFISH      FAIR       9  -2  61 W16G24    29.95R WCI  -9
WINNER         FAIR      16   6  65 W22G29    29.97R WCI  -2
$$

SDZ004>011-016>023-039-040-061600-
NORTHEAST SOUTH DAKOTA

CITY           SKY/WX    TMP DP  RH WIND       PRES   REMARKS
ABERDEEN       CLOUDY    15   7  70 W35G48    29.73R WCI  -7
WATERTOWN      LGT SNOW  14   9  80 W29G39    29.68S WCI  -7
SISSETON         N/A     20  14  77 NW28G38   29.57R WCI   2
$$

SDZ017-020-022-023-036>040-048>070-061600-
SOUTHEAST SOUTH DAKOTA

CITY           SKY/WX    TMP DP  RH WIND       PRES   REMARKS
SIOUX FALLS    FLURRIES  17  11  77 W20G32    29.86R WCI   1
HURON          CLOUDY    15   7  70 W29G39    29.86R WCI  -5
MITCHELL       MOCLDY    17   8  67 W23G32    29.93R WCI  -1
YANKTON        CLEAR    N/A N/A N/A W23G35    29.94R
$$

ABBREVIATIONS USED IN REMARKS
   TC - TEMPERATURE IN CELSIUS
  WCI - WIND CHILL INDEX
   HX - HEAT INDEX
  VSB - VISIBILITY




USA.gov is the U.S. government's official web portal to all federal, state and local government web resources and services.